EUTELSAT HOT BIRD 13C

Last updated on Mon Jun 14 2021 03:05:13 GMT+0000 (Coordinated Universal Time)

1 33459U 08065A 21164.68589749 .00000098 00000-0 00000+0 0 9999 2 33459 0.0371 15.7774 0005868 75.5684 70.7973 1.00271771 45907
UTC large
Height (km)
Speed (km/s)
/
Latitude / Longitude
Inclination (degrees)
Orbital Period (minutes)
Azimuth
Elevation
Range (km)
Doppler Factor

Next 0 passes for location: London (51.5072 / 0.1276)

Sorry there are no passes over London.
EUTELSAT HOT BIRD 13C